EW4483 Weather Reports


Display with metric or nautical units.
time (UTC)temp
F
wind
direction
speed
MPH
gust
MPH
rain 1hr
in
rain 24hr
in
rain mn
in
humidity
%
barometer
mb
20260505041504 71 126 6.0 12.0 0.00 0.00 0.00 49 1021.5
20260505041004 71 130 6.0 13.0 0.00 0.00 0.00 48 1021.5
20260505040504 71 129 6.0 12.0 0.00 0.00 0.00 49 1021.6
20260505035506 71 154 7.0 13.0 0.00 0.00 0.00 50 1021.5
20260505035004 71 140 6.0 13.0 0.00 0.00 0.00 50 1021.6
20260505034505 71 135 4.0 12.0 0.00 0.00 0.00 49 1021.6
20260505033505 71 164 5.0 13.0 0.00 0.00 0.00 47 1021.5
20260505033006 71 127 5.0 13.0 0.00 0.00 0.00 45 1021.3
20260505032505 71 132 5.0 9.0 0.00 0.00 0.00 48 1021.2
20260505032004 71 115 5.0 10.0 0.00 0.00 0.00 46 1021.2
20260505031503 70 111 6.0 12.0 0.00 0.00 0.00 45 1021.3
20260505031006 71 128 5.0 9.0 0.00 0.00 0.00 45 1021.3
20260505030504 71 136 4.0 9.0 0.00 0.00 0.00 50 1021.2
20260505030004 70 126 6.0 9.0 0.00 0.00 0.00 49 1021.4
20260505025504 70 135 7.0 20.0 0.00 0.00 0.00 47 1021.2
20260505025005 70 151 3.0 13.0 0.00 0.00 0.00 49 1021.2
20260505024504 70 122 5.0 13.0 0.00 0.00 0.00 47 1021.1
20260505024006 70 146 5.0 9.0 0.00 0.00 0.00 47 1021.2
20260505023506 70 139 6.0 12.0 0.00 0.00 0.00 45 1021.2
20260505023004 70 144 6.0 12.0 0.00 0.00 0.00 46 1021.2
20260505022504 69 140 6.0 13.0 0.00 0.00 0.00 46 1021.1
20260505022004 70 142 6.0 12.0 0.00 0.00 0.00 46 1021.1
20260505021505 69 139 5.0 9.0 0.00 0.00 0.00 48 1021.0
20260505020505 69 137 5.0 12.0 0.00 0.00 0.00 52 1021.0
20260505020004 70 153 6.0 12.0 0.00 0.00 0.00 50 1021.0
20260505015504 69 131 6.0 12.0 0.00 0.00 0.00 50 1020.9
20260505015004 69 145 6.0 12.0 0.00 0.00 0.00 48 1020.8
20260505014504 69 130 7.0 10.0 0.00 0.00 0.00 48 1020.8
20260505014006 69 125 6.0 10.0 0.00 0.00 0.00 49 1020.9
20260505013504 70 129 6.0 9.0 0.00 0.00 0.00 52 1020.9
20260505013004 70 135 4.0 10.0 0.00 0.00 0.00 53 1021.1
20260505012004 70 127 6.0 12.0 0.00 0.00 0.00 48 1021.0
20260505011504 70 132 5.0 9.0 0.00 0.00 0.00 49 1021.0
20260505010504 70 126 6.0 12.0 0.00 0.00 0.00 48 1021.1
20260505010005 70 156 4.0 10.0 0.00 0.00 0.00 48 1021.1
20260505005506 70 130 3.0 8.0 0.00 0.00 0.00 49 1020.9
20260505005005 70 129 5.0 10.0 0.00 0.00 0.00 48 1021.0
20260505004504 70 118 5.0 10.0 0.00 0.00 0.00 47 1021.0
20260505004004 70 128 3.0 9.0 0.00 0.00 0.00 49 1020.9
20260505003504 70 131 4.0 10.0 0.00 0.00 0.00 49 1020.9
20260505003006 69 125 3.0 8.0 0.00 0.00 0.00 49 1020.9
20260505002504 69 223 2.0 8.0 0.00 0.00 0.00 49 1020.8
20260505002004 68 82 2.0 3.0 0.00 0.00 0.00 49 1020.8
20260505001505 68 154 4.0 7.0 0.00 0.00 0.00 49 1020.8
20260505001005 68 139 3.0 6.0 0.00 0.00 0.00 49 1020.8
20260505000504 68 98 1.0 3.0 0.00 0.00 0.00 49 1020.6
20260505000005 68 52 1.0 3.0 0.00 0.00 0.00 48 1020.6
20260504235504 68 120 4.0 8.0 0.00 0.00 0.00 48 1020.4
20260504235004 67 108 2.0 6.0 0.00 0.00 0.00 50 1020.3
20260504234504 66 117 3.0 6.0 0.00 0.00 0.00 52 1020.3
20260504234005 64 107 1.0 3.0 0.00 0.00 0.00 54 1020.3
20260504233505 63 48 1.0 5.0 0.00 0.00 0.00 54 1020.3
20260504233004 63 342 3.0 5.0 0.00 0.00 0.00 54 1020.3
20260504232504 62 311 6.0 8.0 0.00 0.00 0.00 54 1020.2
20260504231505 62 359 3.0 5.0 0.00 0.00 0.00 54 1020.2
20260504231004 61 4 3.0 6.0 0.00 0.00 0.00 54 1020.1
20260504230506 61 334 3.0 7.0 0.00 0.00 0.00 55 1020.0
20260504230004 61 329 3.0 5.0 0.00 0.00 0.00 54 1020.0
20260504225507 61 348 3.0 5.0 0.00 0.00 0.00 55 1020.0
20260504225005 60 358 4.0 5.0 0.00 0.00 0.00 56 1019.9
20260504224504 60 350 5.0 6.0 0.00 0.00 0.00 56 1019.9
20260504224005 60 349 4.0 6.0 0.00 0.00 0.00 56 1019.8
20260504223506 59 341 3.0 8.0 0.00 0.00 0.00 58 1019.8
20260504223005 59 334 5.0 5.0 0.00 0.00 0.00 57 1019.8
20260504222504 59 8 2.0 3.0 0.00 0.00 0.00 57 1019.7
20260504222007 58 351 2.0 8.0 0.00 0.00 0.00 59 1019.5
20260504221504 58 328 4.0 8.0 0.00 0.00 0.00 58 1019.4
20260504221004 58 342 2.0 6.0 0.00 0.00 0.00 59 1019.0
20260504220504 57 349 3.0 8.0 0.00 0.00 0.00 59 1019.0
20260504220005 57 329 3.0 3.0 0.00 0.00 0.00 59 1018.9
20260504215004 57 330 3.0 5.0 0.00 0.00 0.00 60 1018.7
20260504214505 56 326 4.0 6.0 0.00 0.00 0.00 60 1018.6
20260504214004 56 337 3.0 5.0 0.00 0.00 0.00 62 1018.5
20260504213504 56 333 3.0 5.0 0.00 0.00 0.00 61 1018.5
20260504213004 56 327 1.0 3.0 0.00 0.00 0.00 63 1018.4
20260504211505 54 314 4.0 7.0 0.00 0.00 0.00 65 1017.9
20260504211004 54 309 3.0 5.0 0.00 0.00 0.00 65 1017.9
20260504210505 54 304 2.0 3.0 0.00 0.00 0.00 66 1017.9
20260504210004 54 283 3.0 7.0 0.00 0.00 0.00 66 1017.7
20260504205504 54 326 4.0 7.0 0.00 0.00 0.00 66 1017.7
20260504205004 54 321 4.0 7.0 0.00 0.00 0.00 65 1017.5
20260504204505 54 329 5.0 8.0 0.00 0.00 0.00 65 1017.5
20260504204004 54 337 3.0 8.0 0.00 0.00 0.00 65 1017.6
20260504203504 54 318 5.0 8.0 0.00 0.01 0.00 66 1017.2
20260504202005 53 285 3.0 6.0 0.00 0.01 0.00 65 1016.8
20260504201504 53 335 3.0 7.0 0.00 0.01 0.00 65 1016.8
20260504201003 54 320 5.0 9.0 0.00 0.01 0.00 64 1016.6
20260504200504 54 323 7.0 12.0 0.00 0.01 0.00 64 1016.5
20260504200004 54 326 6.0 10.0 0.00 0.02 0.00 63 1016.3
20260504195504 54 324 7.0 12.0 0.00 0.02 0.00 63 1016.2
20260504195005 54 335 7.0 12.0 0.00 0.03 0.00 63 1016.0
20260504194505 54 321 9.0 12.0 0.00 0.04 0.00 63 1016.0
20260504194004 54 290 7.0 12.0 0.00 0.05 0.00 64 1015.9
20260504193004 54 321 8.0 13.0 0.00 0.08 0.00 63 1016.0
20260504192504 54 317 6.0 10.0 0.00 0.08 0.00 64 1015.7
20260504192004 54 309 6.0 10.0 0.00 0.09 0.00 64 1015.6
20260504191505 54 310 7.0 12.0 0.00 0.09 0.00 64 1015.5
20260504191006 54 310 8.0 13.0 0.00 0.09 0.00 64 1015.4
20260504190505 54 323 9.0 15.0 0.00 0.09 0.00 64 1015.4
20260504190004 55 336 10.0 15.0 0.00 0.10 0.00 63 1015.0
20260504185503 55 303 10.0 17.0 0.00 0.12 0.00 63 1015.0
20260504185004 55 311 10.0 16.0 0.00 0.15 0.00 63 1015.0
20260504184504 55 322 10.0 20.0 0.00 0.19 0.00 64 1014.8
20260504184005 55 305 10.0 13.0 0.00 0.23 0.00 64 1014.6
20260504183506 55 300 11.0 17.0 0.00 0.24 0.00 63 1014.6
20260504183004 55 311 9.0 15.0 0.00 0.24 0.00 63 1014.6
20260504182504 55 318 8.0 14.0 0.00 0.24 0.00 63 1014.7
20260504182006 55 326 9.0 13.0 0.00 0.24 0.00 63 1014.7
20260504181506 56 296 7.0 16.0 0.00 0.24 0.00 63 1014.8
20260504181005 55 320 8.0 13.0 0.00 0.24 0.00 63 1014.6
20260504180504 56 308 7.0 12.0 0.00 0.24 0.00 63 1014.6
20260504180004 56 313 8.0 15.0 0.00 0.24 0.00 62 1014.3
20260504175504 56 333 7.0 12.0 0.00 0.24 0.00 62 1014.4
20260504174504 56 322 10.0 15.0 0.00 0.24 0.00 61 1014.4
20260504174004 56 316 9.0 15.0 0.00 0.24 0.00 61 1014.4
20260504173504 56 305 9.0 17.0 0.00 0.24 0.00 61 1014.4
20260504173004 56 318 10.0 15.0 0.00 0.24 0.00 61 1014.3
20260504172004 57 327 8.0 18.0 0.00 0.24 0.00 62 1013.9
20260504171505 57 325 12.0 18.0 0.00 0.24 0.00 61 1013.7
20260504171004 57 317 12.0 17.0 0.00 0.24 0.00 61 1013.6
20260504170505 57 307 13.0 18.0 0.00 0.24 0.00 62 1013.6
20260504150504 58 310 10.0 18.0 0.00 0.41 0.00 61 1012.9
20260504141004 58 325 11.0 20.0 0.00 1.02 0.43 59 1012.4
20260504140504 58 326 12.0 16.0 0.00 1.07 0.43 60 1012.5
20260504130504 60 328 13.0 20.0 0.00 1.50 0.43 59 1011.9
20260504110506 60 306 13.0 20.0 0.00 1.89 0.43 64 1009.3
20260504082005 67 337 17.0 26.0 0.00 2.23 0.43 57 1005.7
20260504081004 67 334 21.0 28.0 0.00 2.24 0.43 56 1005.5
20260504080504 68 326 17.0 26.0 0.00 2.24 0.43 57 1005.2
20260504050506 72 296 14.0 23.0 0.00 2.29 0.43 56 1002.9
20260504050005 73 331 16.0 20.0 0.00 2.29 0.43 55 1003.0
20260504045504 73 300 13.0 20.0 0.00 2.29 0.43 55 1002.8